Buffalo, NY

5:54 PM EST on January 19, 2017 (GMT -0500)
Buffalo Niagara International

Weather History for KBUF - October, 2012

Change the Weather History Date:

Thursday, October 4, 2012

  Actual Average Record
Temperature  
Mean Temperature 65 °F 55 °F  
Max Temperature 71 °F 64 °F 87 °F (1951)
Min Temperature 58 °F 47 °F 31 °F (1974)
Degree Days  
Heating Degree Days 0 10  
Month to date heating degree days 14 39  
Since 1 July heating degree days 139 201  
Cooling Degree Days 0 0  
Month to date cooling degree days 1 0  
Year to date cooling degree days 872 540  
Growing Degree Days 15 (Base 50)    
Moisture  
Dew Point 54 °F    
Average Humidity 70    
Maximum Humidity 90    
Minimum Humidity 49    
Precipitation  
Precipitation 0.00 in 0.12 in 1.15 in (1898)
Month to date precipitation 0.20 0.48  
Year to date precipitation 21.33 29.54  
Snow  
Snow 0.00 in 0.00 in T in (2014)
Month to date snowfall 0.0 0.1  
Since 1 July snowfall 0.0 0.1  
Since 1 September snowfall 0.0 0.1  
Snow Depth 0.00 in    
Sea Level Pressure  
Sea Level Pressure 30.10 in    
Wind  
Wind Speed 10 mph (SSW)    
Max Wind Speed 24 mph    
Max Gust Speed 32 mph    
Visibility 10 miles    
Events      
T = Trace of Precipitation, MM = Missing Value Source: NWS Daily Summary

Daily Weather History Graph

Daily Weather History Graph

Search for Another Location

Airport or City:

Trip Planner

Search our weather history database for the weather conditions in past years. The results will help you decide how hot, cold, wet, or windy it might be!

Date:

Astronomy

Oct. 04, 2012 Rise Set
Actual Time 7:16 AM EDT 6:50 PM EDT
Civil Twilight 6:47 AM EDT 7:18 PM EDT
Nautical Twilight 6:14 AM EDT 7:51 PM EDT
Astronomical Twilight 5:41 AM EDT 8:24 PM EDT
Moon 9:17 PM EDT (10/4) 11:38 AM EDT (10/4)
Length of Visible Light 12h 30m
Length of Day
11h 33m
Waning Gibbous, 82% of the Moon is Illuminated
Oct 4
Waning Gibbous
Oct 8
Last Quarter
Oct 15
New
Oct 21
First Quarter
Oct 29
Full

Hourly Weather History & Observations

Time (EDT) Temp. Dew Point Humidity Pressure Visibility Wind Dir Wind Speed Gust Speed Precip Events Conditions
12:02 AM 62.6 °F 55.4 °F 77% 30.14 in 10.0 mi WSW 6.9 mph - N/A   Mostly Cloudy
12:50 AM 62.6 °F 55.4 °F 77% 30.15 in 10.0 mi SW 4.6 mph - N/A   Mostly Cloudy
12:54 AM 63.0 °F 55.9 °F 78% 30.14 in 10.0 mi SW 3.5 mph - N/A   Mostly Cloudy
1:54 AM 62.1 °F 57.0 °F 84% 30.15 in 10.0 mi South 4.6 mph - N/A   Mostly Cloudy
2:54 AM 61.0 °F 57.0 °F 87% 30.14 in 10.0 mi South 4.6 mph - N/A   Mostly Cloudy
3:54 AM 60.1 °F 57.0 °F 90% 30.13 in 10.0 mi Calm Calm - N/A   Overcast
4:54 AM 60.1 °F 55.9 °F 86% 30.13 in 10.0 mi South 4.6 mph - N/A   Overcast
5:54 AM 60.1 °F 55.0 °F 83% 30.13 in 10.0 mi South 5.8 mph - N/A   Overcast
6:54 AM 59.0 °F 55.0 °F 87% 30.12 in 10.0 mi SSE 3.5 mph - N/A   Overcast
7:54 AM 60.1 °F 55.0 °F 83% 30.13 in 10.0 mi South 3.5 mph - N/A   Mostly Cloudy
8:54 AM 60.1 °F 54.0 °F 80% 30.13 in 10.0 mi South 4.6 mph - N/A   Overcast
9:54 AM 63.0 °F 55.0 °F 75% 30.13 in 10.0 mi SSW 6.9 mph - N/A   Mostly Cloudy
10:54 AM 66.0 °F 53.1 °F 63% 30.12 in 10.0 mi SSW 15.0 mph - N/A   Mostly Cloudy
11:54 AM 69.1 °F 53.1 °F 57% 30.11 in 10.0 mi SW 13.8 mph 24.2 mph N/A   Mostly Cloudy
12:54 PM 70.0 °F 52.0 °F 53% 30.10 in 10.0 mi SW 16.1 mph 26.5 mph N/A   Scattered Clouds
1:54 PM 71.1 °F 51.1 °F 49% 30.08 in 10.0 mi WSW 19.6 mph 26.5 mph N/A   Scattered Clouds
2:54 PM 70.0 °F 50.0 °F 49% 30.06 in 10.0 mi SW 20.7 mph 28.8 mph N/A   Scattered Clouds
3:54 PM 71.1 °F 51.1 °F 49% 30.05 in 10.0 mi WSW 17.3 mph 23.0 mph N/A   Scattered Clouds
4:54 PM 69.1 °F 52.0 °F 54% 30.05 in 10.0 mi SW 17.3 mph 27.6 mph N/A   Scattered Clouds
5:54 PM 66.9 °F 54.0 °F 63% 30.06 in 10.0 mi SW 18.4 mph 27.6 mph N/A   Scattered Clouds
6:54 PM 66.0 °F 53.1 °F 63% 30.06 in 10.0 mi SW 16.1 mph 25.3 mph N/A   Scattered Clouds
7:54 PM 64.0 °F 55.0 °F 73% 30.07 in 10.0 mi SW 13.8 mph - N/A   Partly Cloudy
8:54 PM 64.0 °F 55.0 °F 73% 30.07 in 10.0 mi SW 11.5 mph - N/A   Scattered Clouds
9:54 PM 63.0 °F 54.0 °F 72% 30.07 in 10.0 mi SSW 9.2 mph - N/A   Clear
10:54 PM 59.0 °F 51.1 °F 75% 30.06 in 10.0 mi SSW 6.9 mph - N/A   Clear
11:54 PM 59.0 °F 51.1 °F 75% 30.04 in 10.0 mi SSW 6.9 mph - N/A   Clear